Location: Hamburg
(53.5500°N, 10.0000°E)
Time: 01:27:01
(UTC+02:00)

Vanguard 1 Rocket - Visible Passes

Search period start: 23 July 2014 00:00
Search period end: 02 August 2014 00:00
Orbit: 651 x 4229 km, 34.3° (Epoch: 19 July)

Date Brightness Start Highest point End Pass type
(mag) Time Alt. Az. Time Alt. Az. Time Alt. Az.
23 Jul 10.3 00:38:40 13° SE 00:38:40 13° SE 00:40:31 10° SE visible
23 Jul 9.6 02:55:52 17° SSW 03:00:28 21° S 03:06:17 10° SE visible
24 Jul 9.9 01:47:40 20° S 01:49:39 21° S 01:56:26 10° SE visible
24 Jul 9.4 04:07:02 10° SW 04:14:33 21° SSW 04:19:39 10° SE visible
25 Jul 10.2 00:27:55 10° SSW 00:38:30 19° SSE 00:45:56 10° ESE visible
25 Jul 9.5 02:55:12 12° SW 03:04:05 24° S 03:10:28 10° SE visible
25 Jul 10.5 23:17:34 10° S 23:27:04 16° SSE 23:34:21 10° ESE visible
26 Jul 9.8 01:41:19 10° SW 01:53:14 25° S 02:00:48 10° ESE visible
26 Jul 9.4 04:09:59 10° WSW 04:18:05 22° SSW 04:23:30 10° SSE visible
26 Jul 10.8 22:10:30 10° SSE 22:15:29 11° SE 22:19:54 10° SE visible
27 Jul 10.1 00:28:54 10° SSW 00:41:59 24° SSE 00:50:37 10° ESE visible
27 Jul 9.5 02:56:39 10° SW 03:07:38 26° S 03:14:28 10° SE visible
27 Jul 10.4 23:17:23 10° SSW 23:30:25 21° SSE 23:39:41 10° ESE visible
28 Jul 9.7 01:43:22 10° SW 01:56:45 28° S 02:04:57 10° SE visible
28 Jul 9.5 04:13:03 10° WSW 04:21:32 22° SSW 04:27:11 10° SSE visible
28 Jul 10.8 22:07:34 10° S 22:18:41 16° SSE 22:27:25 10° ESE visible
29 Jul 10.0 00:30:22 10° SW 00:45:26 28° S 00:54:57 10° ESE visible
29 Jul 9.5 02:59:21 10° WSW 03:11:07 28° SSW 03:18:20 10° SE visible
29 Jul 10.4 23:18:05 10° SSW 23:33:44 26° SSE 23:44:20 10° ESE visible
30 Jul 9.7 01:45:39 10° SW 02:00:13 31° S 02:08:57 10° SE visible
30 Jul 9.6 04:16:15 10° WSW 04:24:54 21° SSW 04:30:42 10° SSE visible
30 Jul 10.7 22:07:04 10° S 22:21:50 21° SSE 22:32:48 10° ESE visible
31 Jul 10.0 00:32:12 10° SW 00:48:49 32° S 00:59:04 10° ESE visible
31 Jul 9.6 03:02:09 10° WSW 03:14:31 28° SSW 03:22:04 10° SE visible
31 Jul 10.3 23:19:21 10° SSW 23:37:01 30° SSE 23:48:38 10° ESE visible
01 Aug 9.8 01:48:07 10° WSW 02:03:36 33° S 02:12:48 10° SE visible
01 Aug 9.7 04:19:36 10° WSW 04:28:08 20° SW 04:34:00 10° S visible
01 Aug 10.7 22:07:32 10° SSW 22:24:55 26° SSE 22:37:28 10° ESE visible
